Regional Weather Roundup
Issued by NWS

Home | Current Version | Previous Version | Text Only | Print | Product List | Glossary Off
Versions: 1 2 3 4 5 6 7 8 9 10 11 12 13 14 15 16 17 18 19 20 21 22 23 24 25 26 27

000
ASUS45 KBOU 212210
RWRCO

WEATHER ROUNDUP FOR COLORADO
NATIONAL WEATHER SERVICE DENVER/BOULDER CO
300 PM MST TUE NOV 21 2017

NOTE: "FAIR" INDICATES FEW OR NO CLOUDS BELOW 12000 FEET WITH NO
SIGNIFICANT WEATHER AND/OR OBSTRUCTIONS TO VISIBILITY.

COZ001>005-013-030-031-212300-
...NORTHWEST COLORADO...

CITY           SKY/WX    TMP DP  RH WIND       PRES   REMARKS
CRAIG          PTSUNNY   51  34  52 W12       30.34R
HAYDEN         CLOUDY    47  36  65 W6        30.36R
MEEKER         FAIR      51  34  52 SE3       30.34S
RABBIT EARS PA FOG       30  28  93 W9G18     30.39R VSB<1/4 WCI  22
STEAMBOAT SPGS CLOUDY    38  35  87 E6        30.35R
WALDEN         PTSUNNY   39  28  65 W7        30.36R
$$

COZ006>008-011-212300-
...WEST CENTRAL VALLEYS...

CITY           SKY/WX    TMP DP  RH WIND       PRES   REMARKS
GRAND JUNCTION FAIR      56  22  26 CALM      30.32S
MONTROSE       FAIR      54  24  31 CALM      30.34F
EAGLE          PTSUNNY   50  31  48 W7        30.37R
RIFLE          CLOUDY    50  31  48 CALM      30.36S
DELTA          FAIR      58  22  24 SW5       30.32F
NUCLA          FAIR      59  23  25 NW13G18   30.35S
$$

COZ017>023-064>068-212300-
...SOUTHWEST COLORADO...

CITY           SKY/WX    TMP DP  RH WIND       PRES   REMARKS
DURANGO        FAIR      56  23  27 S5        30.27S
CORTEZ         FAIR      62  29  28 NW16G23   30.28S
PAGOSA SPRINGS FAIR      55  17  22 W9        30.30R
TELLURIDE      FAIR      47  26  43 W12G18    30.42R
WOLF CREEK PAS NOT AVBL
$$

COZ009-010-012-014-032>034-037-058>063-212300-
...CENTRAL COLORADO...

CITY           SKY/WX    TMP DP  RH WIND       PRES   REMARKS
ASPEN          PTSUNNY   44  30  57 N5        30.38S
BUENA VISTA    FAIR      49  20  31 NW18G24   30.30R
COPPER MTN     CLOUDY    28  25  86 MISG      30.44R
BERTHOUD PASS  CLOUDY    21  10  63 NW41      30.33F WCI   0
COTTONWOOD PAS FAIR      46  21  36 SW8G21    30.35S
GUNNISON       FAIR      49  25  39 NW10      30.34R
KREMMLING      PTSUNNY   45  34  65 SW5       30.37S
LEADVILLE      PTSUNNY   34  22  61 NW8       30.37S WCI  27
MONARCH PASS   PTSUNNY   30  25  80 W17G26    30.54R WCI  18
SALIDA         FAIR      55  24  29 W17G23    30.35R
SUNLIGHT       CLOUDY    30  28  93 MISG      30.49R
WILKERSON PASS PTSUNNY   32  19  59 W6        30.42R WCI  26
$$

COZ069>075-212300-
...SAN LUIS VALLEY/SANGRE DE CRISTO MOUNTAINS...

CITY           SKY/WX    TMP DP  RH WIND       PRES   REMARKS
ALAMOSA        FAIR      56  22  26 NW22G31   30.26F
DEL NORTE      FAIR      55  22  28 NW10      30.31S
LA VETA PASS   FAIR      34  28  80 MISG        N/A
SAGUACHE       PTSUNNY   52  25  35 NW22G32   30.31R
$$

COZ035-036-038>040-212300-
...NORTHERN COLORADO FRONT RANGE...

CITY           SKY/WX    TMP DP  RH WIND       PRES   REMARKS
DENVER INTL AP FAIR      43  30  60 CALM      30.31S
DMNS CITY PARK   N/A     45  31  58 E15       30.30F
AURORA         PTSUNNY   44  32  64 SE5       30.31S
FRONT RANGE AP MOSUNNY   45  32  61 E12       30.32S
ERIE MUNI ARPT CLOUDY    45  32  60 SE5       30.36R
BOULDER MUN AP CLOUDY    43  34  70 SE5       30.30S
CENTENNIAL     PTSUNNY   43  33  68 E6        30.30S
BROOMFIELD     PTSUNNY   45  32  61 E6        30.31S
FORT COLLINS   CLOUDY    42  35  76 SW6       30.32R
LONGMONT       CLOUDY    46  34  61 E5        30.33R
$$

COZ041-046-047-076>085-087-088-212300-
...PIKES PEAK/PALMER DIVIDE AND SOUTHERN FOOTHILLS...

CITY           SKY/WX    TMP DP  RH WIND       PRES   REMARKS
COLO. SPRINGS  PTSUNNY   46  33  60 E12       30.32R
A. F. ACADEMY  CLOUDY    44  33  65 CALM      30.30S
SCHRIEVER AFB  PTSUNNY   44  31  60 SE8       30.32R
CHEYENNE MTN   CLOUDY    40  32  72 SE13      30.26R
ELLICOTT         N/A    N/A N/A N/A SE5       30.31R
FALCON         CLOUDY    42  31  66 E8        30.32S
FORT CARSON    PTSUNNY   46  32  57 S5        30.31R
LIMON          FAIR      46  27  47 N9        30.30F
MONUMENT HILL  FAIR      36  32  87 CALM      30.33S
CANON CITY     PTSUNNY   52  36  54 SE6G17    30.30S
WALSENBURG     MOCLDY    52  36  54 E8        30.31S
TRINIDAD       FAIR      49  34  56 E7        30.31S
$$

COZ042>045-048>051-090-091-212300-
...NORTHEAST COLORADO...

CITY           SKY/WX    TMP DP  RH WIND       PRES   REMARKS
GREELEY ARPT   FAIR      46  31  55 SW8       30.32S
AKRON          FAIR      45  26  47 NW6       30.30F
BURLINGTON     FAIR      47  28  47 N15G22    30.32R
WRAY           NOT AVBL
YUMA           FAIR      45  28  53 NW5       30.31F
STERLING       FAIR      50  28  43 CALM      30.29S
HOLYOKE        FAIR      48  27  43 NW3       30.31F
FORT MORGAN    FAIR      50  25  37 S5        30.30F
$$

COZ086-089-092>099-212300-
...SOUTHEAST COLORADO...

CITY           SKY/WX    TMP DP  RH WIND       PRES   REMARKS
PUEBLO         PTSUNNY   54  35  48 E10       30.29S
LA JUNTA       FAIR      55  28  35 NE6       30.31S
LAMAR          FAIR      54  27  35 NE12      30.30R
SPRINGFIELD      N/A     50  27  40 N15       30.30R
$$




USA.gov is the U.S. government's official web portal to all federal, state and local government web resources and services.